Flag for Madagascar Weather past 2 weeks in Antananarivo, Madagascar

Now
68 °F

Passing clouds.


Feels Like: 68 °F
Forecast: 58 / 82 °F
Wind: No wind

Location: Antananarivo / Ivato

Current Time: Apr 27, 2015 at 10:24:22 AM

Latest Report: Apr 27, 2015 at 10:00 AM


Visibility: N/A

Pressure: 30.18 "Hg

Humidity: 100%

Dew point: 68 °F

Location of AntananarivoLocation

Historic Weather in Antananarivo — Graph

°F

Antananarivo temperature yesterday

Maximum temperature yesterday: 81 °F (at 2:00 PM)
Minimum temperature yesterday: 57 °F (at 3:00 AM)
Average temperature yesterday: 67 °F

Past Weeks' High & Low Weather Summary

 TemperatureHumidityPressure
High99 °F (Apr 20, 3:30 PM)100% (Apr 12, 10:00 PM)30.30 "Hg (Apr 12, 10:00 PM)
Low57 °F (Apr 13, 5:30 AM)35% (Apr 20, 3:30 PM)30.04 "Hg (Apr 15, 2:30 PM)
Average70 °F88%30.19 "Hg
* Reported Apr 12 9:00 AM — Apr 27 9:00 AM, Antananarivo, Weather by CustomWeather, © 2015

Note: Actual official high and low records may vary slightly from our data, if they occured in-between our weather recording intervals... More about our weather records

Advertising

Antananarivo weather history for previous 24 hours

 ConditionsComfort  
Time TempWeatherWind HumidityBarometerVisibility
9:00 AM
Mon, Apr 27
61 °FFog.1 mph100%30.18 "Hg1 mi
8:30 AM59 °FFog.1 mph100%30.18 "Hg1 mi
8:00 AM59 °FFog.3 mph100%30.18 "Hg1 mi
7:55 AM57 °FFog.2 mph100%30.18 "Hg1 mi
7:30 AM57 °FFog.3 mph100%30.18 "Hg0 mi
7:00 AM57 °FFog.2 mph100%30.15 "Hg1 mi
6:30 AM57 °FFog.3 mph100%30.15 "Hg1 mi
6:00 AM57 °FFog.2 mph100%30.15 "Hg1 mi
5:30 AM57 °FFog.1 mph100%30.12 "Hg1 mi
5:00 AM57 °FFog.1 mph100%30.12 "Hg1 mi
4:30 AM57 °FFog.1 mph100%30.12 "Hg1 mi
4:00 AM57 °FFog.1 mph100%30.12 "Hg1 mi
3:30 AM57 °FFog.No wind100%30.12 "Hg1 mi
3:00 AM57 °FFog.No wind100%30.12 "Hg1 mi
2:30 AM57 °FFog.2 mph100%30.12 "Hg2 mi
2:00 AM57 °FClear.3 mph100%30.12 "Hg10 mi
1:30 AM59 °FClear.No wind100%30.15 "Hg10 mi
1:00 AM59 °FPassing clouds.No wind100%30.15 "HgN/A
12:30 AM59 °FPassing clouds.No wind100%30.15 "HgN/A
12:00 AM59 °FPassing clouds.5 mph100%30.18 "HgN/A
11:30 PM
Sun, Apr 26
61 °FPassing clouds.3 mph100%30.18 "HgN/A
11:00 PM61 °FPassing clouds.9 mph100%30.18 "HgN/A
10:30 PM61 °FPassing clouds.9 mph100%30.18 "HgN/A
10:00 PM61 °FPassing clouds.6 mph100%30.18 "HgN/A
9:30 PM63 °FPassing clouds.3 mph100%30.18 "HgN/A
9:00 PM63 °FPassing clouds.7 mph100%30.18 "HgN/A
8:30 PM64 °FThundershowers. Passing clouds.5 mph94%30.18 "HgN/A
8:00 PM64 °FThundershowers. Passing clouds.5 mph94%30.15 "HgN/A
7:30 PM66 °FThundershowers. Passing clouds.5 mph88%30.15 "HgN/A
7:00 PM66 °FThundershowers. Passing clouds.No wind88%30.12 "HgN/A
6:30 PM66 °FThundershowers. Passing clouds.6 mph94%30.12 "HgN/A
6:00 PM68 °FPassing clouds.6 mph83%30.12 "HgN/A
5:30 PM72 °FPassing clouds.8 mph78%30.09 "HgN/A
5:00 PM75 °FPassing clouds.9 mph74%30.12 "HgN/A
4:30 PM75 °FScattered clouds.12 mph69%30.09 "HgN/A
4:00 PM77 °FScattered clouds.10 mph65%30.09 "HgN/A
3:30 PM79 °FScattered clouds.8 mph61%30.09 "HgN/A
3:00 PM79 °FPartly sunny.10 mph61%30.09 "HgN/A
2:30 PM79 °FPartly sunny.8 mph61%30.12 "HgN/A
2:00 PM81 °FPartly sunny.9 mph62%30.12 "HgN/A
1:30 PM75 °FPartly sunny.9 mph65%30.12 "HgN/A
1:00 PM79 °FPartly sunny.9 mph65%30.15 "HgN/A
12:30 PM75 °FScattered clouds.7 mph69%30.15 "HgN/A
12:00 PM77 °FScattered clouds.8 mph74%30.15 "HgN/A
11:30 AM75 °FPartly sunny.9 mph74%30.18 "HgN/A
11:00 AM73 °FScattered clouds.10 mph78%30.18 "HgN/A
10:30 AM72 °FPartly sunny.12 mph83%30.18 "HgN/A
10:00 AM72 °FScattered clouds.7 mph83%30.18 "HgN/A
Weather by CustomWeather, © 2015

See weather overviewHow to use our weather pages